STARLINK-11394, 62218

Orbit data source: Space-Track

STARLINK-11394, 62218 is a payload satellite owned by SpaceX/Seattle (US) in LEO that was launched on Thu, 05 Dec 2024 UTC via an FALCON 9 launch vehicle from the Air Force Western Test Range (AFWTR). Payload-class satellites include a variety of spacecraft equipped with specific instruments for various scientific and technological missions. These include communications satellites like Starlink; space stations such as the ISS; scientific satellites like the Hubble; Earth observation satellites from companies like Planet Labs, Umbra, and HawkEye 360; GPS; miniature CubeSats for education and research; and military/defense satellites.

Loading next visibility...
Identifier
62218, 2024-231A
Orbit
LEO
Last TLE update
10 hours ago
Origin
Manufacturer
SpaceX/Seattle
Mission
Operational Commercial Communications
Bus & Motor
STARLINK V2M, Unknown motor
Mass
730 kg wet, ~700 kg dry
Launch date (UTC)
2024-12-05 (7 months ago)
Launch vehicle
FALCON 9
Launch site
Air Force Western Test Range (AFWTR)
Object type
Payload
Rocket body
Debris
Shape & HBR
Box + 2 Pan, 29 m
Radar Cross Section
36.964 m², Large (>1 m²)

Expand to show TLE details & history

TLE from 10 hours ago
0 STARLINK-11394
1 62218U 24231A   25181.95578323  .00192957  00000-0  15572-2 0  9995
2 62218  53.1563 262.2396 0001598  71.5172 288.6020 15.69765178 33771
Epoch: 2025-06-30T22:56Z
TLE epoch observation values (Epoch: 2025-06-30T22:56:19.671Z)
Latitude
0.00004°
Longitude
-1.10049°
Altitude
360.14 km
Speed
7.695 km/s
True Right ascension
17h 28m 57s
True Declination
0° 00' 00"
Sunlit
Object was in full shadow at epoch
Visualization orbit readout
Latitude
51.55003°
Longitude
107.14527°
Altitude
364.372 km
Speed
7.698 km/s
Apparent Right ascension
04h 52m 16s
Apparent Declination
13° 04' 05"
Sunlit
Object is in daylight
Visualization observer readout
Local Sidereal Time
20:10:34
Azimuth
52.029° ENE
Elevation
-19.84°
Doppler factor
1
Orbital elements
Apogee altitude
360.907 km
Perigee altitude
358.753 km
Semi-major axis
6,737.967 km
Eccentricity
0.00016
Inclination
53.1563°
RAAN
262.2396°
Arg. of periapsis
71.5172°
True anomaly
Unknown
Mean anomaly
288.602°
Eccentric anomaly
Unknown
Mean motion
3.92419 °/min
Orbital period
91.74 mins
BSTAR
0.0015572
Loading maneuver chart data...
Loading SW <> Apogee altitude chart data...
Loading historical data...
Loading historical data...
Loading historical data...
Loading historical data...
Loading historical data...
Loading historical data...
Loading historical data...

STARLINK-11394 Visibility forecast

Observer location: undefined°, undefined°

Span
Click to sort rows by Start time (UTC) header in descending order
Start Az.
Max El. time (UTC)
Max El. Az.
Max El.
End time (UTC)
End Az.
4 mins2025-07-01 14:43:26.260Z331.102° NNW2025-07-01 14:44:26.260Z16.148° NNE39.054°2025-07-01 14:47:26.260Z117.299° SE
4 mins2025-07-02 07:11:26.260Z186.148° SSW2025-07-02 07:13:26.260Z129.291° SE24.613°2025-07-02 07:15:26.260Z77.131° E
|